Regional Weather Roundup
Issued by NWS Charleston, SC

Current Version | Previous Version | Text Only | Print | Product List | Glossary Off
Versions: 1 2 3 4 5 6 7 8 9 10 11 12 13 14 15 16 17 18 19 20 21 22 23 24 25 26 27 28 29 30 31 32 33 34 35 36 37 38 39 40 41 42 43 44 45 46 47 48 49 50

000
ASUS42 KCHS 280912
RWRCHS

REGIONAL WEATHER ROUNDUP
NATIONAL WEATHER SERVICE CHARLESTON SC
500 AM EDT FRI APR 28 2017

NOTE: "FAIR" INDICATES FEW OR NO CLOUDS BELOW 12,000 FEET WITH NO
SIGNIFICANT WEATHER AND/OR OBSTRUCTIONS TO VISIBILITY.

NOT ALL STATIONS ARE QUALITY CONTROLLED. USE DATA WITH CAUTION...
ESPECIALLY DEWPOINT OBSERVATIONS.

SCZ027-030-031-034>040-042>050-281000-
...SOUTHEAST SOUTH CAROLINA...

CITY           SKY/WX    TMP DP  RH WIND       PRES   REMARKS
N CHARLESTON   CLOUDY    74  71  91 S9        29.99R
WATERFRONT PRK   N/A     75  74  97 SW9       29.96S
JOHNS ISLAND   CLOUDY    75  73  94 S8G15     30.00R FOG
PINOPOLIS        N/A     73  72  94 S5        29.89F
MONCKS CORNER  FAIR      72  70  94 S3        29.98R
SUMMERVILLE    FAIR      72  72 100 S3        29.98S
BEAUFORT MCAS  PTCLDY    73  73 100 CALM      29.98R FOG
BEAUFORT ARPT  FAIR      72  72 100 CALM      29.98S FOG
HILTON HEAD IS CLOUDY    73  73 100 VRB3      29.99R FOG
WALTERBORO     SUNNY     70  70 100 CALM      29.98S FOG
ALLENDALE      FAIR      68  66  94 CALM      29.96R

...SOUTHERN MIDLANDS AND PEE DEE...

CITY           SKY/WX    TMP DP  RH WIND       PRES   REMARKS
GEORGETOWN     FAIR      73  72  94 S10       30.00F
KINGSTREE      FAIR      72  68  88 CALM      29.98R
ORANGEBURG     CLEAR     68  66  93 CALM      29.97R
BARNWELL       FAIR      70  66  88 CALM      29.97R
AIKEN          FAIR      64  63  94 SE3       29.99S
MANNING        FAIR      70  68  94 S21       29.97S
COLUMBIA       MOCLDY    70  63  78 CALM      29.96R
SUMTER         PTCLDY    71  66  85 S7        29.95R
FLORENCE       PTCLDY    72  71  97 S7        29.97R
MYRTLE BEACH   CLOUDY    73  72  96 S10       30.00S
N MYRTLE BEACH CLOUDY    73  72  96 S9        29.99S

$$

GAZ063-065-086>088-099>101-113>116-118-119-134>141-150-281000-
...SOUTHEAST GEORGIA...

CITY           SKY/WX    TMP DP  RH WIND       PRES   REMARKS
SAVANNAH ARPT  CLEAR     70  67  90 CALM      29.97S
HUNTER AAF     CLEAR     70  70 100 CALM      29.95S FOG
FORT STEWART   CLEAR     66  64  94 CALM      29.95R FOG
STATESBORO     CLEAR     66  66 100 CALM      29.97R
SYLVANIA       SUNNY    N/A N/A N/A CALM      29.98R
CLAXTON        FAIR     N/A N/A N/A CALM      29.97R

...CSRA...CENTRAL AND FAR SOUTHEAST GEORGIA...

CITY           SKY/WX    TMP DP  RH WIND       PRES   REMARKS
THOMSON        MOCLDY    66  65  97 CALM      30.01R FOG
AUGUSTA-BUSH   CLEAR     67  65  93 CALM      29.94R FOG
AUGUSTA-DANIEL PTCLDY    69  64  84 CALM      29.96R
SWAINSBORO     FAIR      68  68 100 CALM      29.97R
VIDALIA        CLEAR     68  64  88 CALM      29.97R
EASTMAN        FOG       67  67 100 CALM      29.98R VSB 1/4
HAZLEHURST     FAIR      70  70 100 S5        29.95R
ALMA           MOCLDY    68  66  93 S5        29.96R
WAYCROSS       PTCLDY    72  70  94 S6        29.96F FOG
JESUP          FAIR      64  61  88 CALM      29.97S FOG
BAXLEY         FAIR      68  68 100 CALM      29.96R
BRUNSWICK      FOG       68  68 100 CALM      29.98S VSB<1/4
SAINT SIMONS   CLEAR     72  66  81 CALM      29.97R

$$

SCZ027-028-034-036>038-045-046-048>050-GAZ119-141-281000-
...LAKE AND SUPPLEMENTAL COASTAL OBSERVATIONS...

STATION/POSITION TIME  TEMP    WIND        PRES    WAVE   SWELL
                       AIR SEA DIR/SP/G            HT/PER HT/PER/DIR
                 (UTC) (F)     (DEG/KT/KT) (MB)    (FT/S) (FT/S/D)
WINYAH BAY       0745   74     200/  7     1015.0
LAKE MURRAY      0820   70     180/  5/  5 1013.5R
ACE BASIN NERRS  0745   74        CALM     1015.0
FORT PULASKI     0848   73 75   CALM  /  2 1015.4R
SAPELO ISLAND    0800   72        CALM     1015.0

$$

ANZ835-935-AMZ111-154-330-350-352-354-370-450-454-472-281000-
...C-MAN AND BUOY OBSERVATIONS...

STATION/POSITION TIME  TEMP    WIND        PRES    WAVE   SWELL
                       AIR SEA DIR/SP/G            HT/PER HT/PER/DIR
                 (UTC) (F)     (DEG/KT/KT) (MB)    (FT/S) (FT/S/D)
BUOY 41004       0850   75 74  180/ 12/ 14 1016.0R   5/ 8   3/140/ 8
BUOY 41008       0850   74 73  170/  8/  8 1015.0R   3/ 5   3/140/ 5
FOLLY BEACH CMAN 0800   74     200/  9/ 12 1016.1R
CAPERS NEARSHORE 0808   73 73  230/  8/ 10 1015.6R
FRIPP NEARSHORE  0808   74 73  210/ 10/ 14 1015.0R


STATION/POSITION TIME  TEMP    WIND        PRES    WAVE   SWELL
                       AIR SEA DIR/SP/G            HT/PER HT/PER/DIR
                 (UTC) (F)     (DEG/KT/KT) (MB)    (FT/S) (FT/S/D)
5E ST. MARYS GA  0830      74                N/A     3/ 8
FRYING PAN BUOY  0850   74 72  210/ 10/ 12 1016.5R   5/ 6   3/170/ 6
BUOY 41025       0850   77 77  200/ 17/ 21 1016.2R   6/ 8   3/130/ 8
CAPE LOOKOUT NC  0800   73     190/ 13/ 15 1015.2R
BUOY 41002       0850   74 75  170/ 16/ 17 1018.4R   4/ 6   2/ 90/ 8
BUOY 41010       0850   77 78  150/ 16/ 19 1016.4R   4/ 8   3/110/ 8
ST AUGUSTINE FL  0900   73 75  200/  3/  3 1016.2R


$$



USA.gov is the U.S. government's official web portal to all federal, state and local government web resources and services.